Lamar, CO

12:33 PM MDT on September 23, 2019 (GMT -0600)
Lamar Municipal

Weather History for KLAA - August, 2019

Change the Weather History Date:

Monday, August 19, 2019

  Actual Average Record
Temperature  
Mean Temperature 82 °F 75 °F  
Max Temperature 103 °F 90 °F 109 °F (1937)
Min Temperature 60 °F 60 °F 45 °F (1960)
Degree Days  
Heating Degree Days 0 0  
Month to date heating degree days 0 0  
Since 1 June heating degree days 16 22  
Since 1 July heating degree days 0 2  
Cooling Degree Days 17 10  
Month to date cooling degree days 286 219  
Year to date cooling degree days 960 883  
Since 1 June cooling degree days 938 823  
Growing Degree Days 32 (Base 50)    
Moisture  
Dew Point 58 °F    
Average Humidity 56    
Maximum Humidity 93    
Minimum Humidity 18    
Precipitation  
Precipitation 0.00 in 0.05 in 1.38 in (1953)
Month to date precipitation 0.73 1.62  
Year to date precipitation 7.23 11.71  
Sea Level Pressure  
Sea Level Pressure 29.82 in    
Wind  
Wind Speed 10 mph (East)    
Max Wind Speed 28 mph    
Max Gust Speed 39 mph    
Visibility 9 miles    
Events      
T = Trace of Precipitation, MM = Missing Value Source: NWS Daily Summary

Daily Weather History Graph

Daily Weather History Graph

Search for Another Location

Airport or City:

Astronomy

Aug. 19, 2019 Rise Set
Actual Time 6:09 AM MDT 7:39 PM MDT
Civil Twilight 5:41 AM MDT 8:06 PM MDT
Nautical Twilight 5:07 AM MDT 8:40 PM MDT
Astronomical Twilight 4:32 AM MDT 9:15 PM MDT
Moon 10:04 PM MDT (8/19) 9:49 AM MDT (8/19)
Length of Visible Light 14h 25m
Length of Day
13h 29m
Waning Gibbous, 85% of the Moon is Illuminated
Aug 19
Waning Gibbous
Aug 23
Last Quarter
Aug 30
New
Sep 5
First Quarter
Sep 13
Full

Hourly Weather History & Observations

Time (MDT) Temp. Heat Index Dew Point Humidity Pressure Visibility Wind Dir Wind Speed Gust Speed Precip Events Conditions
12:53 AM 66.9 °F - 63.0 °F 87% 29.82 in 10.0 mi NNE 5.8 mph - N/A   Clear
1:53 AM 70.0 °F - 63.0 °F 78% 29.81 in 10.0 mi Calm Calm - N/A   Clear
2:53 AM 68.0 °F - 63.0 °F 84% 29.80 in 10.0 mi NE 6.9 mph - N/A   Clear
3:53 AM 64.9 °F - 63.0 °F 93% 29.82 in 9.0 mi NE 5.8 mph - N/A   Clear
4:53 AM 62.1 °F - 61.0 °F 96% 29.83 in 7.0 mi ENE 4.6 mph - N/A   Clear
5:53 AM 63.0 °F - 61.0 °F 93% 29.83 in 7.0 mi East 6.9 mph - N/A   Clear
6:35 AM 61.0 °F - 60.1 °F 97% 29.99 in 1.8 mi Calm Calm - N/A   Clear
6:47 AM 62.6 °F - 60.8 °F 94% 29.99 in 3.0 mi East 3.5 mph - N/A   Clear
6:53 AM 62.1 °F - 61.0 °F 96% 29.85 in 3.0 mi Calm Calm - N/A   Clear
7:53 AM 68.0 °F - 64.0 °F 87% 29.85 in 7.0 mi North 3.5 mph - N/A   Clear
8:53 AM 73.9 °F - 64.9 °F 73% 29.86 in 10.0 mi Calm Calm - N/A   Clear
9:53 AM 80.1 °F 82.1 °F 66.0 °F 62% 29.86 in 10.0 mi Calm Calm - N/A   Clear
10:53 AM 88.0 °F 88.7 °F 63.0 °F 43% 29.85 in 10.0 mi Variable 3.5 mph - N/A   Clear
11:53 AM 93.0 °F 93.8 °F 62.1 °F 36% 29.83 in 10.0 mi North 5.8 mph - N/A   Clear
12:53 PM 98.1 °F 98.1 °F 60.1 °F 28% 29.81 in 10.0 mi Variable 5.8 mph - N/A   Clear
1:53 PM 100.0 °F 98.8 °F 55.9 °F 23% 29.78 in 10.0 mi East 9.2 mph - N/A   Clear
2:53 PM 102.0 °F - 52.0 °F 19% 29.75 in 10.0 mi Variable 4.6 mph - N/A   Clear
3:53 PM 100.9 °F 100.5 °F 57.9 °F 24% 29.74 in 10.0 mi ENE 11.5 mph - N/A   Clear
4:53 PM 95.0 °F 93.4 °F 55.9 °F 27% 29.76 in 10.0 mi ESE 16.1 mph - N/A   Clear
5:53 PM 95.0 °F 93.7 °F 57.0 °F 28% 29.76 in 10.0 mi East 11.5 mph - N/A   Clear
6:53 PM 93.0 °F - 50.0 °F 23% 29.76 in 10.0 mi SE 13.8 mph 23.0 mph N/A   Clear
7:53 PM 88.0 °F - 50.0 °F 27% 29.76 in 10.0 mi South 19.6 mph 32.2 mph N/A   Clear
8:53 PM 87.1 °F - 51.1 °F 29% 29.77 in 10.0 mi South 23.0 mph 36.8 mph N/A   Clear
9:53 PM 84.9 °F - 51.1 °F 31% 29.78 in 10.0 mi South 25.3 mph 35.7 mph N/A   Clear
10:53 PM 81.0 °F - 52.0 °F 36% 29.78 in 10.0 mi South 19.6 mph 29.9 mph N/A   Clear
11:53 PM 81.0 °F - 52.0 °F 36% 29.79 in 10.0 mi South 23.0 mph 32.2 mph N/A   Clear